When you browse on this site, cookies collect data to enhance your experience and personalize the content and advertising you see.
Visit our Privacy Policy to learn more. By continuing to use the site, you agree to this use of cookies and data.
  • In United Kingdom
  • List of Countries
  • For 7 days
  • Water Temperature
  • Satellite Maps
  • Weather Map
  • Weather Widgets
  • user-avatar
    Login

    Hourly Weather Gold Coast

    Today, 17 January, Thursday

    Time Temperature Precipitation Wind Pressure Humidity
    00:00 +25°C° 0 mm 2 mps 757 mmHg 83%
    01:00 +25°C° 0 mm 2 mps 756 mmHg 84%
    02:00 +24°C° 0 mm 2 mps 756 mmHg 86%
    03:00 +24°C° 0 mm 2 mps 756 mmHg 87%
    04:00 +24°C° 0 mm 2 mps 756 mmHg 88%
    05:00 +25°C° 0 mm 2 mps 757 mmHg 84%
    06:00 +25°C° 0 mm 2 mps 757 mmHg 80%
    07:00 +26°C° 0 mm 2 mps 757 mmHg 76%
    08:00 +27°C° 0 mm 3 mps 757 mmHg 70%
    09:00 +28°C° 0 mm 3 mps 757 mmHg 64%
    10:00 +30°C° 0 mm 2 mps 757 mmHg 56%
    11:00 +31°C° 0 mm 3 mps 757 mmHg 53%
    12:00 +33°C° 0 mm 3 mps 757 mmHg 49%
    13:00 +34°C° 0 mm 4 mps 756 mmHg 45%
    14:00 +33°C° 0 mm 4 mps 756 mmHg 47%
    15:00 +32°C° 0 mm 4 mps 756 mmHg 49%
    16:00 +30°C° 0 mm 4 mps 755 mmHg 50%
    17:00 +29°C° 0 mm 3 mps 755 mmHg 56%
    18:00 +27°C° 0 mm 3 mps 756 mmHg 62%
    19:00 +26°C° 0 mm 3 mps 756 mmHg 68%
    20:00 +25°C° 0 mm 3 mps 756 mmHg 73%
    21:00 +24°C° 0 mm 3 mps 757 mmHg 78%
    22:00 +22°C° 0 mm 3 mps 757 mmHg 82%
    23:00 +22°C° 0 mm 3 mps 757 mmHg 84%

    Tomorrow, 18 January, Friday

    Time Temperature Precipitation Wind Pressure Humidity
    00:00 +23°C° 0 mm 2 mps 757 mmHg 85%
    01:00 +23°C° 0 mm 2 mps 757 mmHg 87%
    02:00 +23°C° 0 mm 2 mps 757 mmHg 86%
    03:00 +23°C° 0 mm 2 mps 757 mmHg 85%
    04:00 +23°C° 0 mm 2 mps 757 mmHg 85%
    05:00 +24°C° 0 mm 2 mps 758 mmHg 80%
    06:00 +25°C° 0 mm 2 mps 758 mmHg 74%
    07:00 +26°C° 0 mm 2 mps 758 mmHg 69%
    08:00 +27°C° 0 mm 3 mps 758 mmHg 63%
    09:00 +29°C° 0 mm 3 mps 758 mmHg 58%
    10:00 +30°C° 0 mm 3 mps 758 mmHg 52%
    11:00 +31°C° 0 mm 3 mps 758 mmHg 49%
    12:00 +33°C° 0 mm 3 mps 758 mmHg 46%
    13:00 +34°C° 0 mm 4 mps 757 mmHg 43%
    14:00 +33°C° 0 mm 4 mps 757 mmHg 46%
    15:00 +33°C° 0 mm 4 mps 757 mmHg 49%
    16:00 +32°C° 0 mm 4 mps 756 mmHg 52%
    17:00 +29°C° 0 mm 4 mps 757 mmHg 60%
    18:00 +27°C° 0 mm 3 mps 757 mmHg 68%
    19:00 +26°C° 0 mm 3 mps 758 mmHg 75%
    20:00 +25°C° 0 mm 3 mps 758 mmHg 79%
    21:00 +24°C° 0 mm 3 mps 759 mmHg 83%
    22:00 +24°C° 0 mm 3 mps 759 mmHg 87%
    23:00 +24°C° 0 mm 3 mps 759 mmHg 88%

    Day after tomorrow, 19 January, Saturday

    Time Temperature Precipitation Wind Pressure Humidity
    00:00 +24°C° 0 mm 3 mps 759 mmHg 89%
    01:00 +22°C° 0 mm 3 mps 758 mmHg 89%
    02:00 +23°C° 0 mm 2 mps 758 mmHg 89%
    03:00 +23°C° 0 mm 2 mps 758 mmHg 90%
    04:00 +23°C° 0 mm 2 mps 758 mmHg 90%
    05:00 +24°C° 0 mm 2 mps 759 mmHg 85%
    06:00 +25°C° 0 mm 2 mps 759 mmHg 81%
    07:00 +26°C° 0 mm 2 mps 760 mmHg 77%
    08:00 +28°C° 0 mm 2 mps 759 mmHg 66%
    09:00 +30°C° 0 mm 2 mps 759 mmHg 56%
    10:00 +34°C° 0 mm 2 mps 759 mmHg 45%
    11:00 +34°C° 0 mm 3 mps 759 mmHg 43%
    12:00 +35°C° 0 mm 4 mps 758 mmHg 40%
    13:00 +36°C° 0 mm 4 mps 757 mmHg 37%
    14:00 +35°C° 0 mm 4 mps 757 mmHg 42%
    15:00 +34°C° 0 mm 4 mps 756 mmHg 46%
    16:00 +33°C° 0 mm 4 mps 756 mmHg 50%
    17:00 +30°C° 0 mm 4 mps 756 mmHg 59%
    18:00 +28°C° 0 mm 3 mps 757 mmHg 68%
    19:00 +26°C° 0 mm 3 mps 757 mmHg 77%
    20:00 +25°C° 0 mm 2 mps 758 mmHg 81%
    21:00 +24°C° 0 mm 2 mps 759 mmHg 86%
    22:00 +23°C° 0 mm 1 mps 760 mmHg 91%
    23:00 +23°C° 0 mm 1 mps 759 mmHg 91%

    20 January, Sunday

    Time Temperature Precipitation Wind Pressure Humidity
    00:00 +23°C° 0 mm 1 mps 759 mmHg 92%
    01:00 +22°C° 0 mm 1 mps 759 mmHg 92%
    02:00 +22°C° 0 mm 1 mps 759 mmHg 92%
    03:00 +22°C° 0 mm 1 mps 759 mmHg 93%
    04:00 +22°C° 0 mm 1 mps 759 mmHg 93%
    05:00 +24°C° 0 mm 1 mps 759 mmHg 87%
    06:00 +25°C° 0 mm 1 mps 760 mmHg 81%
    07:00 +27°C° 0 mm 1 mps 760 mmHg 75%
    08:00 +28°C° 0 mm 2 mps 760 mmHg 69%
    09:00 +30°C° 0 mm 2 mps 760 mmHg 64%
    10:00 +31°C° 0 mm 3 mps 760 mmHg 58%
    11:00 +33°C° 0 mm 3 mps 759 mmHg 57%
    12:00 +34°C° 0 mm 3 mps 759 mmHg 55%
    13:00 +34°C° 0 mm 4 mps 759 mmHg 53%
    14:00 +34°C° 0 mm 4 mps 758 mmHg 56%
    15:00 +33°C° 0 mm 4 mps 758 mmHg 58%
    16:00 +33°C° 0 mm 4 mps 758 mmHg 61%
    17:00 +30°C° 0 mm 3 mps 758 mmHg 68%
    18:00 +29°C° 0 mm 3 mps 759 mmHg 75%
    19:00 +27°C° 0 mm 3 mps 759 mmHg 82%
    20:00 +26°C° 0 mm 2 mps 759 mmHg 83%
    21:00 +26°C° 0 mm 2 mps 760 mmHg 85%
    22:00 +25°C° 0 mm 2 mps 760 mmHg 86%
    23:00 +25°C° 0 mm 2 mps 760 mmHg 87%

    21 January, Monday

    Time Temperature Precipitation Wind Pressure Humidity
    00:00 +25°C° 0 mm 1 mps 759 mmHg 87%
    01:00 +24°C° 0 mm 1 mps 759 mmHg 88%
    02:00 +24°C° 0 mm 1 mps 758 mmHg 89%
    03:00 +24°C° 0 mm 1 mps 758 mmHg 89%
    04:00 +24°C° 0 mm 1 mps 758 mmHg 90%
    05:00 +25°C° 0 mm 1 mps 759 mmHg 85%
    06:00 +26°C° 0 mm 1 mps 759 mmHg 80%
    07:00 +27°C° 0 mm 2 mps 759 mmHg 74%
    08:00 +28°C° 0 mm 2 mps 759 mmHg 68%
    09:00 +30°C° 0 mm 2 mps 759 mmHg 61%
    10:00 +31°C° 0 mm 3 mps 759 mmHg 55%
    11:00 +33°C° 0 mm 3 mps 759 mmHg 52%
    12:00 +33°C° 0 mm 4 mps 758 mmHg 50%
    13:00 +34°C° 0 mm 4 mps 758 mmHg 47%
    14:00 +33°C° 0 mm 4 mps 757 mmHg 51%
    15:00 +33°C° 0 mm 4 mps 757 mmHg 54%
    16:00 +32°C° 0 mm 4 mps 757 mmHg 58%
    17:00 +29°C° 0 mm 4 mps 757 mmHg 66%
    18:00 +28°C° 0 mm 3 mps 758 mmHg 73%
    19:00 +26°C° 0 mm 3 mps 758 mmHg 81%
    20:00 +26°C° 0 mm 3 mps 758 mmHg 84%
    21:00 +25°C° 0 mm 2 mps 759 mmHg 87%
    22:00 +24°C° 0 mm 2 mps 759 mmHg 90%
    23:00 +24°C° 0 mm 2 mps 759 mmHg 90%

    22 January, Tuesday

    Time Temperature Precipitation Wind Pressure Humidity
    00:00 +24°C° 0 mm 2 mps 759 mmHg 90%
    01:00 +24°C° 0 mm 1 mps 758 mmHg 91%
    02:00 +24°C° 0 mm 1 mps 758 mmHg 91%
    03:00 +24°C° 0 mm 1 mps 758 mmHg 92%
    04:00 +24°C° 0 mm 1 mps 758 mmHg 92%
    05:00 +25°C° 0 mm 1 mps 758 mmHg 87%
    06:00 +26°C° 0 mm 1 mps 759 mmHg 81%
    07:00 +27°C° 0 mm 2 mps 759 mmHg 76%
    08:00 +29°C° 0 mm 2 mps 759 mmHg 68%
    09:00 +30°C° 0 mm 3 mps 758 mmHg 61%
    10:00 +33°C° 0 mm 3 mps 758 mmHg 53%
    11:00 +33°C° 0 mm 3 mps 758 mmHg 52%
    12:00 +34°C° 0 mm 4 mps 757 mmHg 51%
    13:00 +34°C° 0 mm 4 mps 757 mmHg 49%
    14:00 +34°C° 0 mm 4 mps 756 mmHg 51%
    15:00 +33°C° 0 mm 4 mps 756 mmHg 54%
    16:00 +32°C° 0 mm 4 mps 756 mmHg 56%
    17:00 +30°C° 0 mm 4 mps 756 mmHg 63%
    18:00 +28°C° 0 mm 3 mps 756 mmHg 70%
    19:00 +26°C° 0 mm 3 mps 757 mmHg 78%
    20:00 +26°C° 0 mm 3 mps 757 mmHg 81%
    21:00 +25°C° 0 mm 3 mps 758 mmHg 85%
    22:00 +25°C° 0 mm 2 mps 758 mmHg 88%
    23:00 +25°C° 0 mm 2 mps 758 mmHg 88%
    Show more